Location: Dumpton Point
(51.3500°N, 1.4433°E)
Time: 17:05:24
(UTC+00:00)

SPOT 5 - Pass Details

Date: 09 April 2020
Orbit: 624 x 814 km, 98.3° (Epoch: 24 May)

Event Time Altitude Azimuth Distance (km) Brightness Sun altitude
Exits shadow 22:10:52 37° 260° (W) 986 3.7 -26.5°
Maximum altitude 22:10:56 37° 263° (W) 985 3.7 -26.5°
Drops below altitude 10° 22:14:58 10° 331° (NNW) 2,011 6.2 -26.8°
Sets 22:17:19 0° 340° (NNW) 2,932 7.3 -27.0°
